Location: Bennemühlen
(52.5740°N, 9.7135°E)
Time: 21:14:06
(UTC+00:00)

Tiros 1 despin weight - Pass Details

Date: 19 February 2026
Orbit: 556 x 593 km, 48.2° (Epoch: 8 March)

Event Time Altitude Azimuth Distance (km) Brightness Sun altitude
Rises 18:50:24 0° 274° (W) 2,736 ? -20.2°
Reaches altitude 10° 18:52:58 10° 260° (W) 1,839 ? -20.6°
Maximum altitude 18:56:19 23° 207° (SSW) 1,194 ? -21.1°
Enters shadow 18:57:42 20° 178° (S) 1,325 ? -21.3°
Drops below altitude 10° 18:59:40 10° 154° (SSE) 1,839 - -21.6°
Sets 19:02:15 0° 140° (SE) 2,737 - -22.0°
